EW4729 Weather Reports


Display with metric or nautical units.
time (UTC)temp
F
wind
direction
speed
MPH
gust
MPH
rain 1hr
in
rain 24hr
in
rain mn
in
humidity
%
barometer
mb
20220518022540 79 129 4.0 9.0 0.00 0.00 0.00 80 1012.6
20220518021541 79 166 4.0 7.0 0.00 0.00 0.00 79 1012.4
20220518021042 79 168 3.0 8.0 0.00 0.00 0.00 78 1012.4
20220518020541 80 212 3.0 8.0 0.00 0.00 0.00 77 1012.3
20220518020041 80 137 4.0 8.0 0.00 0.00 0.00 77 1012.2
20220518015540 80 178 3.0 9.0 0.00 0.00 0.00 76 1012.3
20220518015040 80 154 4.0 11.0 0.00 0.00 0.00 75 1012.2
20220518014540 81 154 6.0 11.0 0.00 0.00 0.00 75 1012.2
20220518014040 81 133 4.0 11.0 0.00 0.00 0.00 74 1012.2
20220518013540 81 167 6.0 14.0 0.00 0.00 0.00 73 1012.2
20220518013039 81 200 7.0 14.0 0.00 0.00 0.00 73 1012.1
20220518012539 82 205 7.0 12.0 0.00 0.00 0.00 72 1012.1
20220518011546 82 152 5.0 13.0 0.00 0.00 0.00 71 1012.1
20220518011038 83 160 5.0 13.0 0.00 0.00 0.00 70 1012.1
20220518010538 83 182 7.0 13.0 0.00 0.00 0.00 69 1012.1
20220518010037 83 183 5.0 11.0 0.00 0.00 0.00 67 1012.1
20220518005537 84 179 6.0 11.0 0.00 0.00 0.00 66 1012.1
20220518005037 84 158 6.0 15.0 0.00 0.00 0.00 65 1012.1
20220518004552 84 137 5.0 17.0 0.00 0.00 0.00 64 1012.0
20220518004037 85 206 8.0 17.0 0.00 0.00 0.00 63 1012.1
20220518003536 85 160 7.0 16.0 0.00 0.00 0.00 62 1012.1
20220518003036 86 164 8.0 16.0 0.00 0.00 0.00 62 1011.9
20220518002537 87 186 7.0 12.0 0.00 0.00 0.00 60 1012.0
20220518001537 87 152 7.0 11.0 0.00 0.00 0.00 60 1012.0
20220518001037 87 206 7.0 11.0 0.00 0.00 0.00 58 1012.0
20220518000640 87 211 7.0 14.0 0.00 0.00 0.00 57 1012.0
20220518000048 88 187 7.0 22.0 0.00 0.00 0.00 57 1012.0
20220517235536 88 147 9.0 22.0 0.00 0.00 0.00 57 1012.0
20220517235035 89 188 7.0 19.0 0.00 0.00 0.00 58 1011.9
20220517234535 89 150 9.0 19.0 0.00 0.00 0.00 57 1011.9
20220517234036 89 154 9.0 20.0 0.00 0.00 0.00 56 1012.0
20220517233538 90 141 8.0 18.0 0.00 0.00 0.00 55 1011.9
20220517233035 90 177 8.0 16.0 0.00 0.00 0.00 55 1012.0
20220517232536 91 214 9.0 15.0 0.00 0.00 0.00 52 1011.9
20220517231534 91 177 8.0 14.0 0.00 0.00 0.00 52 1011.9
20220517231036 91 163 8.0 16.0 0.00 0.00 0.00 52 1011.8
20220517230533 91 152 9.0 20.0 0.00 0.00 0.00 52 1011.9
20220517230035 92 174 8.0 21.0 0.00 0.00 0.00 51 1011.8
20220517225533 92 109 9.0 20.0 0.00 0.00 0.00 51 1011.8
20220517225034 92 171 8.0 17.0 0.00 0.00 0.00 51 1011.8
20220517224533 92 199 8.0 16.0 0.00 0.00 0.00 50 1011.9
20220517224032 93 150 8.0 15.0 0.00 0.00 0.00 50 1011.8
20220517223533 93 189 9.0 16.0 0.00 0.00 0.00 49 1011.8
20220517223033 93 165 8.0 16.0 0.00 0.00 0.00 48 1011.8
20220517222531 94 162 7.0 15.0 0.00 0.00 0.00 47 1011.8
20220517221534 94 196 9.0 19.0 0.00 0.00 0.00 49 1011.9
20220517221033 94 183 7.0 16.0 0.00 0.00 0.00 48 1011.9
20220517220531 94 185 8.0 16.0 0.00 0.00 0.00 45 1011.9
20220517220032 94 200 10.0 14.0 0.00 0.00 0.00 44 1011.9
20220517215630 94 164 9.0 13.0 0.00 0.00 0.00 43 1012.0
20220517215034 94 189 7.0 17.0 0.00 0.00 0.00 45 1012.0
20220517214531 94 197 7.0 14.0 0.00 0.00 0.00 45 1012.0
20220517214030 94 177 9.0 14.0 0.00 0.00 0.00 43 1012.1
20220517213528 94 173 6.0 18.0 0.00 0.00 0.00 46 1012.0
20220517213028 94 178 9.0 17.0 0.00 0.00 0.00 43 1012.0
20220517212528 94 179 8.0 13.0 0.00 0.00 0.00 45 1012.0
20220517211526 94 185 7.0 16.0 0.00 0.00 0.00 44 1012.2
20220517211025 94 179 10.0 18.0 0.00 0.00 0.00 44 1012.3
20220517210525 94 123 9.0 18.0 0.00 0.00 0.00 45 1012.3
20220517210024 94 195 6.0 16.0 0.00 0.00 0.00 48 1012.3
20220517205523 94 196 8.0 16.0 0.00 0.00 0.00 48 1012.5
20220517205023 94 183 6.0 14.0 0.00 0.00 0.00 48 1012.5
20220517204525 94 186 9.0 19.0 0.00 0.00 0.00 47 1012.6
20220517204023 94 177 8.0 17.0 0.00 0.00 0.00 48 1012.7
20220517203522 94 174 9.0 14.0 0.00 0.00 0.00 47 1012.7
20220517203021 94 148 5.0 18.0 0.00 0.00 0.00 47 1012.7
20220517202521 94 219 8.0 17.0 0.00 0.00 0.00 48 1012.8
20220517201522 94 191 9.0 13.0 0.00 0.00 0.00 49 1012.9
20220517201029 94 166 4.0 16.0 0.00 0.00 0.00 49 1013.0
20220517200521 94 190 7.0 19.0 0.00 0.00 0.00 50 1013.1
20220517200022 94 180 6.0 13.0 0.00 0.00 0.00 49 1013.1
20220517195519 94 187 9.0 13.0 0.00 0.00 0.00 49 1013.2
20220517195019 94 120 5.0 16.0 0.00 0.00 0.00 49 1013.2
20220517194520 93 120 5.0 17.0 0.00 0.00 0.00 51 1013.3
20220517194020 93 187 11.0 17.0 0.00 0.00 0.00 50 1013.4
20220517193518 93 118 6.0 15.0 0.00 0.00 0.00 51 1013.4
20220517193033 93 175 8.0 19.0 0.00 0.00 0.00 50 1013.4
20220517192517 93 93 6.0 14.0 0.00 0.00 0.00 51 1013.5
20220517191517 93 102 7.0 14.0 0.00 0.00 0.00 52 1013.6
20220517191020 93 133 5.0 14.0 0.00 0.00 0.00 53 1013.7
20220517190517 93 187 4.0 12.0 0.00 0.00 0.00 55 1013.8
20220517190013 92 197 6.0 14.0 0.00 0.00 0.00 52 1013.9
20220517185512 92 179 4.0 14.0 0.00 0.00 0.00 54 1013.9
20220517185011 92 172 6.0 14.0 0.00 0.00 0.00 53 1014.0
20220517184513 92 158 6.0 16.0 0.00 0.00 0.00 55 1014.1
20220517184009 91 201 7.0 15.0 0.00 0.00 0.00 57 1014.1
20220517183509 91 197 10.0 15.0 0.00 0.00 0.00 55 1014.3
20220517183007 91 123 4.0 11.0 0.00 0.00 0.00 55 1014.4
20220517182506 90 152 7.0 18.0 0.00 0.00 0.00 57 1014.5
20220517181505 90 123 7.0 18.0 0.00 0.00 0.00 57 1014.5
20220517181005 90 196 5.0 10.0 0.00 0.00 0.00 59 1014.6
20220517180502 90 185 5.0 10.0 0.00 0.00 0.00 59 1014.6
20220517180001 89 202 6.0 11.0 0.00 0.00 0.00 59 1014.7
20220517175500 89 170 5.0 16.0 0.00 0.00 0.00 59 1014.8
20220517175003 89 196 7.0 11.0 0.00 0.00 0.00 60 1014.9
20220517174559 89 183 6.0 12.0 0.00 0.00 0.00 60 1014.8
20220517174059 88 181 6.0 13.0 0.00 0.00 0.00 61 1014.9
20220517173558 88 194 9.0 13.0 0.00 0.00 0.00 60 1015.0
20220517173056 88 232 4.0 16.0 0.00 0.00 0.00 61 1015.0
20220517172556 88 208 8.0 16.0 0.00 0.00 0.00 62 1015.2
20220517171604 87 218 10.0 14.0 0.00 0.00 0.00 61 1015.3
20220517171057 87 185 7.0 14.0 0.00 0.00 0.00 63 1015.3
20220517170557 87 140 6.0 14.0 0.00 0.00 0.00 63 1015.4
20220517170054 87 191 5.0 11.0 0.00 0.00 0.00 64 1015.4
20220517165554 87 181 7.0 11.0 0.00 0.00 0.00 67 1015.5